| time (UTC) | temp F | wind direction | speed MPH | gust MPH | rain 1hr in | rain 24hr in | rain mn in | humidity % | barometer mb |
| 20260506100010 | 58 | 324 | 0.0 | 3.0 | 0.00 | 0.05 | 0.00 | 57 | 1014.6 |
| 20260506095506 | 58 | 323 | 0.0 | 3.0 | 0.00 | 0.05 | 0.00 | 57 | 1014.6 |
| 20260506095006 | 58 | 311 | 1.0 | 3.0 | 0.00 | 0.05 | 0.00 | 55 | 1014.6 |
| 20260506094508 | 58 | 315 | 0.0 | 3.0 | 0.00 | 0.05 | 0.00 | 55 | 1014.6 |
| 20260506094005 | 59 | 320 | 0.0 | 4.0 | 0.00 | 0.05 | 0.00 | 54 | 1014.5 |
| 20260506093504 | 58 | 307 | 0.0 | 4.0 | 0.00 | 0.05 | 0.00 | 55 | 1014.5 |
| 20260506093009 | 58 | 326 | 1.0 | 3.0 | 0.00 | 0.05 | 0.00 | 54 | 1014.6 |
| 20260506092509 | 58 | 336 | 0.0 | 3.0 | 0.00 | 0.06 | 0.00 | 54 | 1014.5 |
| 20260506092007 | 57 | 317 | 1.0 | 3.0 | 0.00 | 0.07 | 0.00 | 54 | 1014.6 |
| 20260506091510 | 57 | 318 | 0.0 | 2.0 | 0.00 | 0.07 | 0.00 | 55 | 1014.6 |
| 20260506091007 | 56 | 313 | 0.0 | 1.0 | 0.00 | 0.07 | 0.00 | 55 | 1014.6 |
| 20260506090506 | 57 | 296 | 0.0 | 0.0 | 0.00 | 0.08 | 0.00 | 57 | 1014.6 |
| 20260506090008 | 57 | 308 | 0.0 | 0.0 | 0.00 | 0.08 | 0.00 | 56 | 1014.6 |
| 20260506085507 | 57 | 250 | 0.0 | 1.0 | 0.00 | 0.08 | 0.00 | 54 | 1014.6 |
| 20260506085006 | 58 | 247 | 0.0 | 1.0 | 0.00 | 0.08 | 0.00 | 54 | 1014.6 |
| 20260506084509 | 58 | 247 | 0.0 | 1.0 | 0.00 | 0.08 | 0.00 | 54 | 1014.7 |
| 20260506084006 | 58 | 360 | 0.0 | 1.0 | 0.00 | 0.08 | 0.00 | 54 | 1014.7 |
| 20260506083505 | 59 | 360 | 0.0 | 3.0 | 0.00 | 0.08 | 0.00 | 51 | 1014.6 |
| 20260506083009 | 59 | 360 | 0.0 | 3.0 | 0.00 | 0.08 | 0.00 | 51 | 1014.7 |
| 20260506082506 | 59 | 360 | 0.0 | 3.0 | 0.00 | 0.09 | 0.00 | 50 | 1014.6 |
| 20260506082007 | 59 | 360 | 0.0 | 4.0 | 0.00 | 0.09 | 0.00 | 50 | 1014.7 |
| 20260506081505 | 59 | 360 | 1.0 | 4.0 | 0.00 | 0.09 | 0.00 | 50 | 1014.7 |
| 20260506081010 | 59 | 360 | 0.0 | 3.0 | 0.00 | 0.10 | 0.00 | 51 | 1014.7 |
| 20260506080504 | 59 | 360 | 0.0 | 3.0 | 0.00 | 0.10 | 0.00 | 50 | 1014.7 |
| 20260506073506 | 60 | 360 | 0.0 | 3.0 | 0.00 | 0.13 | 0.00 | 49 | 1014.7 |
| 20260506073026 | 60 | 360 | 0.0 | 3.0 | 0.00 | 0.14 | 0.00 | 49 | 1014.7 |
| 20260506072510 | 60 | 360 | 0.0 | 3.0 | 0.00 | 0.14 | 0.00 | 49 | 1014.7 |
| 20260506072010 | 60 | 360 | 0.0 | 3.0 | 0.00 | 0.15 | 0.00 | 50 | 1014.7 |
| 20260506071526 | 61 | 360 | 0.0 | 2.0 | 0.00 | 0.15 | 0.00 | 50 | 1014.7 |
| 20260506071010 | 61 | 360 | 0.0 | 2.0 | 0.00 | 0.15 | 0.00 | 51 | 1014.7 |
| 20260506070504 | 61 | 360 | 0.0 | 2.0 | 0.00 | 0.15 | 0.00 | 53 | 1014.7 |
| 20260506062509 | 63 | 360 | 0.0 | 4.0 | 0.00 | 0.19 | 0.16 | 55 | 1014.5 |
| 20260506062006 | 63 | 360 | 0.0 | 4.0 | 0.00 | 0.20 | 0.16 | 54 | 1014.4 |
| 20260506061526 | 63 | 360 | 1.0 | 5.0 | 0.00 | 0.20 | 0.16 | 53 | 1014.4 |
| 20260506061011 | 63 | 360 | 1.0 | 5.0 | 0.00 | 0.21 | 0.16 | 53 | 1014.5 |
| 20260506060504 | 63 | 360 | 2.0 | 5.0 | 0.00 | 0.21 | 0.16 | 51 | 1014.5 |
| 20260506051007 | 65 | 360 | 1.0 | 7.0 | 0.00 | 0.25 | 0.16 | 42 | 1014.1 |
| 20260506050503 | 65 | 11 | 2.0 | 7.0 | 0.00 | 0.25 | 0.16 | 44 | 1014.1 |
| 20260506045005 | 66 | 360 | 1.0 | 10.0 | 0.00 | 0.26 | 0.16 | 48 | 1013.9 |
| 20260506044527 | 66 | 360 | 4.0 | 11.0 | 0.00 | 0.26 | 0.16 | 47 | 1013.8 |
| 20260506044007 | 66 | 360 | 5.0 | 11.0 | 0.00 | 0.27 | 0.16 | 46 | 1013.7 |
| 20260506043508 | 67 | 360 | 2.0 | 11.0 | 0.00 | 0.27 | 0.16 | 43 | 1013.7 |
| 20260506043008 | 66 | 360 | 6.0 | 11.0 | 0.00 | 0.27 | 0.16 | 42 | 1013.7 |
| 20260506042508 | 67 | 360 | 4.0 | 10.0 | 0.00 | 0.27 | 0.16 | 47 | 1013.7 |
| 20260506042007 | 67 | 11 | 3.0 | 10.0 | 0.00 | 0.27 | 0.16 | 47 | 1013.6 |
| 20260506041505 | 67 | 360 | 6.0 | 10.0 | 0.00 | 0.28 | 0.16 | 47 | 1013.6 |
| 20260506041009 | 67 | 360 | 5.0 | 11.0 | 0.00 | 0.28 | 0.16 | 47 | 1013.5 |
| 20260506040503 | 67 | 360 | 4.0 | 11.0 | 0.00 | 0.28 | 0.16 | 47 | 1013.4 |
| 20260506040006 | 66 | 360 | 3.0 | 8.0 | 0.00 | 0.29 | 0.16 | 46 | 1013.2 |
| 20260506035507 | 66 | 360 | 4.0 | 7.0 | 0.00 | 0.29 | 0.16 | 46 | 1013.1 |
| 20260506035002 | 67 | 360 | 1.0 | 4.0 | 0.00 | 0.29 | 0.16 | 44 | 1012.9 |
| 20260506034508 | 67 | 360 | 0.0 | 3.0 | 0.00 | 0.29 | 0.16 | 43 | 1012.8 |
| 20260506034011 | 67 | 360 | 0.0 | 4.0 | 0.00 | 0.29 | 0.16 | 41 | 1012.7 |
| 20260506033504 | 67 | 360 | 0.0 | 4.0 | 0.00 | 0.29 | 0.16 | 41 | 1012.6 |
| 20260506033006 | 67 | 360 | 0.0 | 4.0 | 0.00 | 0.29 | 0.16 | 40 | 1012.5 |
| 20260506032508 | 67 | 360 | 0.0 | 4.0 | 0.00 | 0.29 | 0.16 | 39 | 1012.4 |
| 20260506032004 | 68 | 360 | 1.0 | 4.0 | 0.00 | 0.29 | 0.16 | 39 | 1012.3 |
| 20260506031506 | 68 | 360 | 1.0 | 5.0 | 0.00 | 0.29 | 0.16 | 38 | 1012.2 |
| 20260506031007 | 68 | 360 | 2.0 | 5.0 | 0.00 | 0.29 | 0.16 | 38 | 1012.2 |
| 20260506030508 | 68 | 360 | 2.0 | 5.0 | 0.00 | 0.29 | 0.16 | 37 | 1012.1 |
| 20260506030004 | 68 | 360 | 3.0 | 5.0 | 0.00 | 0.29 | 0.16 | 37 | 1012.0 |
| 20260506025507 | 68 | 360 | 1.0 | 7.0 | 0.00 | 0.29 | 0.16 | 37 | 1012.0 |
| 20260506025007 | 69 | 360 | 2.0 | 9.0 | 0.00 | 0.29 | 0.16 | 36 | 1011.9 |
| 20260506024506 | 69 | 360 | 3.0 | 9.0 | 0.00 | 0.29 | 0.16 | 36 | 1012.0 |
| 20260506024010 | 69 | 360 | 3.0 | 9.0 | 0.00 | 0.29 | 0.16 | 35 | 1011.9 |
| 20260506023504 | 69 | 360 | 5.0 | 9.0 | 0.00 | 0.29 | 0.16 | 35 | 1011.8 |
| 20260506023030 | 69 | 360 | 2.0 | 8.0 | 0.00 | 0.29 | 0.16 | 35 | 1011.7 |
| 20260506022508 | 69 | 11 | 2.0 | 11.0 | 0.00 | 0.29 | 0.16 | 34 | 1011.6 |
| 20260506022003 | 69 | 8 | 5.0 | 11.0 | 0.00 | 0.29 | 0.16 | 33 | 1011.5 |
| 20260506021532 | 70 | 360 | 0.0 | 11.0 | 0.00 | 0.29 | 0.16 | 33 | 1011.4 |
| 20260506021008 | 70 | 360 | 5.0 | 14.0 | 0.00 | 0.29 | 0.16 | 32 | 1011.3 |
| 20260506020503 | 70 | 360 | 4.0 | 14.0 | 0.00 | 0.29 | 0.16 | 31 | 1011.2 |
| 20260506020031 | 70 | 9 | 4.0 | 11.0 | 0.00 | 0.29 | 0.16 | 31 | 1011.2 |
| 20260506015507 | 71 | 10 | 6.0 | 12.0 | 0.00 | 0.29 | 0.16 | 30 | 1011.0 |
| 20260506015012 | 71 | 360 | 6.0 | 12.0 | 0.00 | 0.29 | 0.16 | 30 | 1011.0 |
| 20260506014525 | 71 | 11 | 6.0 | 12.0 | 0.00 | 0.29 | 0.16 | 30 | 1011.0 |
| 20260506014007 | 71 | 8 | 7.0 | 13.0 | 0.00 | 0.29 | 0.16 | 29 | 1011.0 |
| 20260506013504 | 72 | 7 | 5.0 | 13.0 | 0.00 | 0.29 | 0.16 | 31 | 1010.9 |
| 20260506013026 | 71 | 8 | 7.0 | 14.0 | 0.00 | 0.29 | 0.16 | 31 | 1010.8 |
| 20260506012507 | 72 | 8 | 5.0 | 14.0 | 0.00 | 0.29 | 0.16 | 32 | 1010.9 |
| 20260506012004 | 72 | 9 | 5.0 | 13.0 | 0.00 | 0.29 | 0.16 | 32 | 1010.9 |
| 20260506011523 | 72 | 8 | 7.0 | 13.0 | 0.00 | 0.29 | 0.16 | 32 | 1010.9 |
| 20260506011010 | 73 | 11 | 6.0 | 15.0 | 0.00 | 0.29 | 0.16 | 31 | 1010.9 |
| 20260506010508 | 73 | 8 | 6.0 | 17.0 | 0.00 | 0.29 | 0.16 | 31 | 1010.9 |
| 20260506010043 | 74 | 8 | 9.0 | 17.0 | 0.00 | 0.29 | 0.16 | 31 | 1010.8 |
| 20260506005508 | 74 | 8 | 5.0 | 13.0 | 0.00 | 0.29 | 0.16 | 31 | 1010.7 |
| 20260506005004 | 74 | 7 | 6.0 | 14.0 | 0.00 | 0.29 | 0.16 | 30 | 1010.7 |
| 20260506004527 | 74 | 9 | 7.0 | 14.0 | 0.00 | 0.29 | 0.16 | 30 | 1010.6 |
| 20260506004007 | 74 | 360 | 6.0 | 13.0 | 0.00 | 0.29 | 0.16 | 29 | 1010.5 |
| 20260506003504 | 74 | 8 | 6.0 | 13.0 | 0.00 | 0.29 | 0.16 | 28 | 1010.5 |
| 20260506003026 | 74 | 7 | 5.0 | 14.0 | 0.00 | 0.29 | 0.16 | 28 | 1010.4 |
| 20260506002507 | 74 | 8 | 6.0 | 14.0 | 0.00 | 0.29 | 0.16 | 27 | 1010.4 |
| 20260506002004 | 75 | 360 | 6.0 | 14.0 | 0.00 | 0.29 | 0.16 | 28 | 1010.3 |
| 20260506001524 | 76 | 9 | 7.0 | 14.0 | 0.00 | 0.29 | 0.16 | 27 | 1010.3 |
| 20260506001009 | 75 | 360 | 4.0 | 13.0 | 0.00 | 0.29 | 0.16 | 28 | 1010.3 |
| 20260506000508 | 75 | 8 | 7.0 | 13.0 | 0.00 | 0.29 | 0.16 | 28 | 1010.3 |
| 20260506000027 | 76 | 8 | 5.0 | 11.0 | 0.00 | 0.29 | 0.16 | 27 | 1010.3 |
| 20260505235508 | 77 | 7 | 6.0 | 11.0 | 0.00 | 0.29 | 0.16 | 25 | 1010.3 |
| 20260505235004 | 77 | 360 | 4.0 | 9.0 | 0.00 | 0.29 | 0.16 | 26 | 1010.2 |
| 20260505234536 | 76 | 11 | 4.0 | 12.0 | 0.00 | 0.29 | 0.16 | 26 | 1010.1 |
| 20260505234007 | 77 | 360 | 4.0 | 13.0 | 0.00 | 0.29 | 0.16 | 25 | 1010.1 |
| 20260505233503 | 77 | 360 | 7.0 | 13.0 | 0.00 | 0.29 | 0.16 | 25 | 1010.0 |
| 20260505233034 | 76 | 360 | 4.0 | 12.0 | 0.00 | 0.29 | 0.16 | 27 | 1010.0 |
| 20260505232508 | 75 | 360 | 4.0 | 12.0 | 0.00 | 0.29 | 0.16 | 27 | 1010.0 |
| 20260505232003 | 75 | 360 | 4.0 | 12.0 | 0.00 | 0.29 | 0.16 | 26 | 1010.0 |
| 20260505231530 | 76 | 360 | 4.0 | 14.0 | 0.00 | 0.29 | 0.16 | 27 | 1010.0 |
| 20260505231006 | 76 | 360 | 7.0 | 14.0 | 0.00 | 0.29 | 0.16 | 26 | 1010.1 |
| 20260505230504 | 77 | 360 | 6.0 | 17.0 | 0.00 | 0.29 | 0.16 | 24 | 1010.0 |
| 20260505230024 | 77 | 11 | 8.0 | 17.0 | 0.00 | 0.29 | 0.16 | 25 | 1010.0 |
| 20260505225510 | 77 | 8 | 7.0 | 15.0 | 0.00 | 0.29 | 0.16 | 25 | 1010.0 |
| 20260505225006 | 77 | 360 | 8.0 | 15.0 | 0.00 | 0.29 | 0.16 | 25 | 1010.0 |
| 20260505224530 | 78 | 360 | 7.0 | 15.0 | 0.00 | 0.29 | 0.16 | 27 | 1010.0 |
| 20260505224009 | 79 | 360 | 6.0 | 12.0 | 0.00 | 0.29 | 0.16 | 28 | 1010.2 |
| 20260505223512 | 78 | 11 | 3.0 | 12.0 | 0.00 | 0.29 | 0.16 | 30 | 1010.2 |
| 20260505223025 | 77 | 360 | 4.0 | 12.0 | 0.00 | 0.29 | 0.16 | 30 | 1010.2 |
| 20260505222507 | 77 | 360 | 6.0 | 12.0 | 0.00 | 0.29 | 0.16 | 29 | 1010.3 |
| 20260505222006 | 77 | 360 | 4.0 | 14.0 | 0.00 | 0.29 | 0.16 | 29 | 1010.3 |
| 20260505221524 | 77 | 360 | 3.0 | 14.0 | 0.00 | 0.29 | 0.16 | 29 | 1010.4 |
| 20260505221013 | 78 | 9 | 5.0 | 11.0 | 0.00 | 0.29 | 0.16 | 31 | 1010.4 |
| 20260505220504 | 77 | 11 | 5.0 | 11.0 | 0.00 | 0.29 | 0.16 | 30 | 1010.4 |
| 20260505220027 | 77 | 360 | 4.0 | 12.0 | 0.00 | 0.29 | 0.16 | 30 | 1010.4 |
| 20260505215505 | 77 | 360 | 7.0 | 12.0 | 0.00 | 0.29 | 0.16 | 30 | 1010.7 |
| 20260505215005 | 77 | 15 | 5.0 | 11.0 | 0.00 | 0.29 | 0.16 | 29 | 1010.7 |
| 20260505214552 | 77 | 17 | 6.0 | 16.0 | 0.00 | 0.29 | 0.16 | 30 | 1010.8 |
| 20260505214008 | 76 | 12 | 7.0 | 16.0 | 0.00 | 0.29 | 0.16 | 32 | 1010.8 |
| 20260505213507 | 75 | 360 | 8.0 | 16.0 | 0.00 | 0.29 | 0.16 | 33 | 1010.8 |
| 20260505213026 | 75 | 360 | 5.0 | 15.0 | 0.00 | 0.29 | 0.16 | 35 | 1010.8 |
| 20260505212508 | 76 | 360 | 4.0 | 15.0 | 0.00 | 0.29 | 0.16 | 36 | 1010.9 |
| 20260505212006 | 77 | 360 | 7.0 | 15.0 | 0.00 | 0.29 | 0.16 | 31 | 1010.8 |
| 20260505211524 | 76 | 360 | 7.0 | 15.0 | 0.00 | 0.29 | 0.16 | 29 | 1011.0 |
| 20260505211008 | 76 | 360 | 6.0 | 15.0 | 0.00 | 0.29 | 0.16 | 30 | 1011.1 |
| 20260505210510 | 75 | 360 | 8.0 | 17.0 | 0.00 | 0.29 | 0.16 | 31 | 1011.0 |
| 20260505210025 | 76 | 13 | 8.0 | 17.0 | 0.00 | 0.29 | 0.16 | 29 | 1011.3 |
| 20260505205509 | 76 | 12 | 8.0 | 20.0 | 0.00 | 0.29 | 0.16 | 31 | 1011.2 |
| 20260505205010 | 75 | 360 | 9.0 | 20.0 | 0.00 | 0.29 | 0.16 | 30 | 1011.3 |
| 20260505204528 | 75 | 360 | 10.0 | 19.0 | 0.00 | 0.29 | 0.16 | 29 | 1011.2 |
| 20260505204015 | 76 | 360 | 8.0 | 17.0 | 0.00 | 0.29 | 0.16 | 31 | 1011.2 |
| 20260505203508 | 76 | 360 | 8.0 | 17.0 | 0.00 | 0.29 | 0.16 | 29 | 1011.1 |
| 20260505203034 | 76 | 360 | 6.0 | 16.0 | 0.00 | 0.29 | 0.16 | 28 | 1011.2 |
| 20260505202509 | 75 | 10 | 8.0 | 18.0 | 0.00 | 0.29 | 0.16 | 31 | 1011.3 |
| 20260505202013 | 75 | 360 | 11.0 | 24.0 | 0.00 | 0.29 | 0.16 | 30 | 1011.2 |
| 20260505201530 | 75 | 360 | 11.0 | 24.0 | 0.00 | 0.29 | 0.16 | 29 | 1011.3 |
| 20260505201008 | 75 | 360 | 11.0 | 19.0 | 0.00 | 0.29 | 0.16 | 29 | 1011.3 |
| 20260505200509 | 75 | 360 | 10.0 | 17.0 | 0.00 | 0.29 | 0.16 | 29 | 1011.4 |
| 20260505200025 | 75 | 360 | 12.0 | 21.0 | 0.00 | 0.29 | 0.16 | 33 | 1011.5 |
| 20260505195513 | 74 | 8 | 9.0 | 21.0 | 0.00 | 0.29 | 0.16 | 35 | 1011.5 |
| 20260505195010 | 74 | 8 | 10.0 | 20.0 | 0.00 | 0.29 | 0.16 | 35 | 1011.5 |
| 20260505194523 | 74 | 9 | 9.0 | 19.0 | 0.00 | 0.29 | 0.16 | 36 | 1011.5 |
| 20260505194007 | 74 | 10 | 11.0 | 19.0 | 0.00 | 0.29 | 0.16 | 39 | 1011.5 |
| 20260505193510 | 74 | 11 | 10.0 | 19.0 | 0.00 | 0.29 | 0.16 | 40 | 1011.5 |
| 20260505193010 | 74 | 10 | 7.0 | 13.0 | 0.00 | 0.29 | 0.16 | 44 | 1011.7 |
| 20260505192508 | 71 | 9 | 5.0 | 13.0 | 0.00 | 0.29 | 0.16 | 49 | 1011.8 |
| 20260505192006 | 70 | 9 | 2.0 | 6.0 | 0.00 | 0.29 | 0.16 | 54 | 1011.9 |
| 20260505191508 | 70 | 8 | 1.0 | 3.0 | 0.00 | 0.29 | 0.16 | 53 | 1011.8 |
| 20260505191011 | 70 | 9 | 0.0 | 2.0 | 0.00 | 0.29 | 0.16 | 56 | 1012.0 |
| 20260505190502 | 69 | 10 | 0.0 | 4.0 | 0.00 | 0.29 | 0.16 | 54 | 1012.0 |
| 20260505190006 | 69 | 360 | 1.0 | 5.0 | 0.00 | 0.29 | 0.16 | 56 | 1012.1 |
| 20260505185510 | 69 | 11 | 2.0 | 5.0 | 0.00 | 0.29 | 0.16 | 54 | 1012.1 |
| 20260505185004 | 69 | 8 | 1.0 | 5.0 | 0.00 | 0.29 | 0.16 | 55 | 1012.3 |
| 20260505184506 | 70 | 8 | 1.0 | 5.0 | 0.00 | 0.29 | 0.16 | 53 | 1012.3 |
| 20260505184009 | 71 | 360 | 1.0 | 5.0 | 0.00 | 0.29 | 0.16 | 54 | 1012.3 |
| 20260505183504 | 69 | 12 | 2.0 | 5.0 | 0.00 | 0.29 | 0.16 | 55 | 1012.5 |
| 20260505183010 | 69 | 8 | 1.0 | 5.0 | 0.00 | 0.29 | 0.16 | 55 | 1012.5 |
| 20260505182512 | 69 | 360 | 1.0 | 6.0 | 0.00 | 0.29 | 0.16 | 56 | 1012.7 |
| 20260505182007 | 69 | 11 | 2.0 | 6.0 | 0.00 | 0.29 | 0.16 | 58 | 1012.8 |
| 20260505181506 | 69 | 360 | 2.0 | 4.0 | 0.00 | 0.29 | 0.16 | 57 | 1012.9 |
| 20260505181009 | 70 | 360 | 0.0 | 3.0 | 0.00 | 0.29 | 0.16 | 57 | 1013.0 |
| 20260505180505 | 69 | 360 | 0.0 | 3.0 | 0.00 | 0.29 | 0.16 | 57 | 1013.0 |
| 20260505180007 | 69 | 360 | 0.0 | 4.0 | 0.00 | 0.29 | 0.16 | 59 | 1013.1 |
| 20260505175509 | 69 | 360 | 1.0 | 4.0 | 0.00 | 0.29 | 0.16 | 57 | 1013.2 |
| 20260505175003 | 68 | 360 | 1.0 | 5.0 | 0.00 | 0.29 | 0.16 | 61 | 1013.2 |
| 20260505174510 | 67 | 360 | 2.0 | 5.0 | 0.00 | 0.29 | 0.16 | 61 | 1013.2 |
| 20260505174009 | 67 | 360 | 0.0 | 4.0 | 0.00 | 0.29 | 0.16 | 63 | 1013.2 |
| 20260505173503 | 67 | 360 | 2.0 | 4.0 | 0.00 | 0.29 | 0.16 | 64 | 1013.3 |
| 20260505173004 | 67 | 360 | 1.0 | 4.0 | 0.00 | 0.29 | 0.16 | 65 | 1013.2 |
| 20260505172507 | 66 | 8 | 1.0 | 5.0 | 0.00 | 0.29 | 0.16 | 67 | 1013.2 |
| 20260505172008 | 66 | 360 | 2.0 | 5.0 | 0.00 | 0.29 | 0.16 | 68 | 1013.2 |
| 20260505171504 | 67 | 10 | 1.0 | 4.0 | 0.00 | 0.29 | 0.16 | 67 | 1013.2 |
| 20260505171011 | 67 | 360 | 1.0 | 2.0 | 0.00 | 0.29 | 0.16 | 68 | 1013.2 |
| 20260505170505 | 66 | 9 | 0.0 | 2.0 | 0.00 | 0.29 | 0.16 | 68 | 1013.1 |
| 20260505170006 | 65 | 360 | 0.0 | 2.0 | 0.00 | 0.29 | 0.16 | 70 | 1013.1 |
| 20260505165509 | 66 | 360 | 0.0 | 2.0 | 0.00 | 0.29 | 0.16 | 69 | 1013.2 |
| 20260505165006 | 66 | 11 | 0.0 | 4.0 | 0.00 | 0.29 | 0.16 | 70 | 1013.1 |
| 20260505164505 | 66 | 360 | 0.0 | 4.0 | 0.00 | 0.29 | 0.16 | 71 | 1013.1 |
| 20260505164008 | 65 | 360 | 0.0 | 4.0 | 0.00 | 0.29 | 0.16 | 71 | 1013.1 |
| 20260505163505 | 65 | 360 | 1.0 | 3.0 | 0.00 | 0.29 | 0.16 | 72 | 1013.1 |
| 20260505163004 | 65 | 360 | 0.0 | 2.0 | 0.00 | 0.29 | 0.16 | 73 | 1013.0 |
| 20260505162508 | 64 | 360 | 0.0 | 2.0 | 0.00 | 0.29 | 0.16 | 73 | 1013.2 |
| 20260505162008 | 64 | 360 | 0.0 | 2.0 | 0.00 | 0.29 | 0.16 | 75 | 1013.2 |
| 20260505161505 | 64 | 360 | 0.0 | 0.0 | 0.00 | 0.29 | 0.16 | 76 | 1013.2 |
| 20260505161005 | 64 | 360 | 0.0 | 3.0 | 0.00 | 0.29 | 0.16 | 76 | 1013.3 |
| 20260505160505 | 63 | 360 | 0.0 | 3.0 | 0.00 | 0.29 | 0.16 | 76 | 1013.3 |
| 20260505153006 | 62 | 360 | 1.0 | 3.0 | 0.00 | 0.29 | 0.16 | 85 | 1013.0 |
| 20260505152508 | 62 | 360 | 0.0 | 3.0 | 0.00 | 0.29 | 0.16 | 86 | 1013.0 |
| 20260505152007 | 62 | 360 | 0.0 | 3.0 | 0.00 | 0.29 | 0.16 | 88 | 1013.0 |
| 20260505151512 | 62 | 360 | 0.0 | 3.0 | 0.00 | 0.29 | 0.16 | 88 | 1013.0 |
| 20260505151009 | 61 | 360 | 1.0 | 5.0 | 0.00 | 0.29 | 0.16 | 89 | 1012.9 |
| 20260505150510 | 61 | 360 | 2.0 | 5.0 | 0.00 | 0.29 | 0.16 | 89 | 1013.0 |
| 20260505140504 | 60 | 360 | 0.0 | 0.0 | 0.00 | 0.29 | 0.16 | 91 | 1012.6 |
| 20260505125004 | 58 | 360 | 0.0 | 3.0 | 0.00 | 0.29 | 0.16 | 91 | 1011.9 |
| 20260505124527 | 58 | 360 | 0.0 | 3.0 | 0.01 | 0.29 | 0.16 | 91 | 1011.8 |
| 20260505124007 | 58 | 360 | 1.0 | 3.0 | 0.02 | 0.29 | 0.16 | 91 | 1011.7 |
| 20260505123507 | 58 | 360 | 0.0 | 4.0 | 0.02 | 0.29 | 0.16 | 91 | 1011.7 |
| 20260505123025 | 59 | 360 | 1.0 | 4.0 | 0.02 | 0.29 | 0.16 | 91 | 1011.7 |
| 20260505122507 | 59 | 360 | 1.0 | 3.0 | 0.02 | 0.29 | 0.16 | 91 | 1011.6 |
| 20260505122004 | 59 | 360 | 0.0 | 2.0 | 0.02 | 0.29 | 0.16 | 91 | 1011.7 |
| 20260505121526 | 58 | 360 | 0.0 | 2.0 | 0.02 | 0.29 | 0.16 | 91 | 1011.8 |
| 20260505121009 | 58 | 360 | 0.0 | 3.0 | 0.02 | 0.29 | 0.16 | 91 | 1011.7 |
| 20260505120504 | 58 | 360 | 1.0 | 3.0 | 0.02 | 0.29 | 0.16 | 91 | 1011.4 |
| 20260505120031 | 58 | 360 | 1.0 | 3.0 | 0.02 | 0.29 | 0.16 | 91 | 1011.5 |
| 20260505115509 | 58 | 360 | 0.0 | 3.0 | 0.02 | 0.29 | 0.16 | 91 | 1011.6 |
| 20260505115005 | 58 | 360 | 0.0 | 3.0 | 0.02 | 0.29 | 0.16 | 91 | 1011.5 |
| 20260505114526 | 58 | 360 | 0.0 | 4.0 | 0.01 | 0.28 | 0.15 | 91 | 1011.4 |
| 20260505114010 | 58 | 360 | 1.0 | 4.0 | 0.01 | 0.27 | 0.14 | 91 | 1011.3 |
| 20260505113506 | 58 | 360 | 0.0 | 6.0 | 0.01 | 0.27 | 0.14 | 91 | 1011.5 |
| 20260505113027 | 58 | 360 | 3.0 | 6.0 | 0.01 | 0.27 | 0.14 | 91 | 1011.6 |
| 20260505112507 | 58 | 360 | 0.0 | 4.0 | 0.01 | 0.27 | 0.14 | 91 | 1011.9 |
| 20260505112004 | 58 | 360 | 2.0 | 4.0 | 0.01 | 0.27 | 0.14 | 91 | 1011.8 |
| 20260505111528 | 58 | 360 | 1.0 | 5.0 | 0.01 | 0.27 | 0.14 | 91 | 1011.8 |
| 20260505111010 | 58 | 360 | 1.0 | 5.0 | 0.02 | 0.27 | 0.14 | 91 | 1011.7 |
| 20260505110503 | 58 | 360 | 1.0 | 4.0 | 0.03 | 0.27 | 0.14 | 91 | 1011.7 |
| 20260505102001 | 58 | 360 | 4.0 | 8.0 | 0.04 | 0.26 | 0.13 | 91 | 1012.2 |
| 20260505101515 | 58 | 360 | 4.0 | 8.0 | 0.04 | 0.26 | 0.13 | 91 | 1012.5 |
| 20260505101002 | 58 | 360 | 2.0 | 11.0 | 0.03 | 0.25 | 0.12 | 91 | 1012.9 |
| 20260505100505 | 58 | 360 | 3.0 | 11.0 | 0.03 | 0.24 | 0.11 | 91 | 1013.0 |